Honolulu, HI

4:23 PM HST on August 30, 2016 (GMT -1000)
Honolulu International

Weather History for PHNL - June, 2013

Change the Weather History Date:

Monday, June 17, 2013

  Actual Average Record
Temperature  
Mean Temperature 78 °F 80 °F  
Max Temperature 85 °F 87 °F 90 °F (1995)
Min Temperature 71 °F 74 °F 68 °F (1959)
Degree Days  
Heating Degree Days 0 0  
Month to date heating degree days 0 0  
Since 1 June heating degree days 0 0  
Since 1 July heating degree days 0 0  
Cooling Degree Days 13 15  
Month to date cooling degree days 241 252  
Year to date cooling degree days 1701 1754  
Since 1 June cooling degree days 241 252  
Growing Degree Days 28 (Base 50)    
Moisture  
Dew Point 65 °F    
Average Humidity 66    
Maximum Humidity 84    
Minimum Humidity 48    
Precipitation  
Precipitation T in 0.01 in 0.19 in (2014)
Month to date precipitation 0.02 0.16  
Year to date precipitation 8.48 7.73  
Snow  
Snow 0.00 in - - ()
Month to date snowfall 0.0  
Since 1 June snowfall 0.0  
Since 1 July snowfall 0.0  
Snow Depth 0.00 in    
Sea Level Pressure  
Sea Level Pressure 30.05 in    
Wind  
Wind Speed 12 mph (ENE)    
Max Wind Speed 21 mph    
Max Gust Speed 28 mph    
Visibility 10 miles    
Events Rain    
T = Trace of Precipitation, MM = Missing Value Source: NWS Daily Summary

Daily Weather History Graph

Daily Weather History Graph

Search for Another Location

Airport or City:

Trip Planner

Search our weather history database for the weather conditions in past years. The results will help you decide how hot, cold, wet, or windy it might be!

Date:

Astronomy

Jun. 17, 2013 Rise Set
Actual Time 5:49 AM HST 7:15 PM HST
Civil Twilight 5:24 AM HST 7:40 PM HST
Nautical Twilight 4:55 AM HST 8:10 PM HST
Astronomical Twilight 4:24 AM HST 8:40 PM HST
Moon 1:39 PM HST (6/17) 12:53 AM HST (6/17)
Length of Visible Light 14h 15m
Length of Day
13h 25m
Waxing Gibbous, 62% of the Moon is Illuminated
Jun 17
Waxing Gibbous
Jun 23
Full
Jun 29
Last Quarter
Jul 7
New
Jul 15
First Quarter

Hourly Weather History & Observations

Time (HST) Temp. Heat Index Dew Point Humidity Pressure Visibility Wind Dir Wind Speed Gust Speed Precip Events Conditions
12:53 AM 73.9 °F - 64.9 °F 73% 30.01 in 10.0 mi ENE 10.4 mph - N/A   Scattered Clouds
1:53 AM 73.9 °F - 64.9 °F 73% 30.00 in 10.0 mi ENE 9.2 mph - N/A   Scattered Clouds
2:53 AM 73.9 °F - 64.9 °F 73% 29.99 in 10.0 mi East 10.4 mph - 0.00 in   Scattered Clouds
3:53 AM 73.9 °F - 66.0 °F 76% 30.01 in 10.0 mi ENE 11.5 mph - N/A   Scattered Clouds
4:53 AM 72.0 °F - 66.9 °F 84% 30.01 in 10.0 mi ENE 3.5 mph - 0.00 in   Scattered Clouds
5:53 AM 72.0 °F - 66.0 °F 81% 30.04 in 10.0 mi ENE 6.9 mph - 0.00 in   Scattered Clouds
6:53 AM 73.0 °F - 66.9 °F 81% 30.06 in 10.0 mi ENE 12.7 mph - 0.00 in   Scattered Clouds
7:53 AM 73.0 °F - 66.9 °F 81% 30.06 in 10.0 mi NNE 8.1 mph - 0.00 in Rain Light Rain
8:53 AM 75.9 °F - 66.9 °F 74% 30.06 in 10.0 mi East 10.4 mph - 0.00 in Rain Light Rain
9:53 AM 82.0 °F 83.4 °F 64.0 °F 54% 30.06 in 10.0 mi ENE 13.8 mph 24.2 mph 0.00 in   Scattered Clouds
10:53 AM 82.0 °F 83.4 °F 64.0 °F 54% 30.06 in 10.0 mi NE 12.7 mph 25.3 mph N/A   Scattered Clouds
11:53 AM 82.0 °F 83.8 °F 64.9 °F 56% 30.05 in 10.0 mi NE 15.0 mph 25.3 mph N/A   Scattered Clouds
12:53 PM 84.0 °F 84.9 °F 63.0 °F 49% 30.04 in 10.0 mi NE 17.3 mph 24.2 mph N/A   Mostly Cloudy
1:53 PM 82.9 °F 84.6 °F 64.9 °F 54% 30.03 in 10.0 mi NE 16.1 mph 23.0 mph N/A   Mostly Cloudy
2:53 PM 82.0 °F 83.1 °F 63.0 °F 52% 30.03 in 10.0 mi ENE 16.1 mph 23.0 mph N/A   Scattered Clouds
3:53 PM 82.9 °F 84.0 °F 63.0 °F 51% 30.03 in 10.0 mi ENE 20.7 mph 25.3 mph N/A   Scattered Clouds
4:53 PM 82.0 °F 83.4 °F 64.0 °F 54% 30.03 in 10.0 mi NE 17.3 mph - N/A   Scattered Clouds
5:53 PM 79.0 °F - 64.0 °F 60% 30.04 in 10.0 mi NE 16.1 mph - N/A   Scattered Clouds
6:53 PM 77.0 °F - 64.0 °F 64% 30.05 in 10.0 mi NE 11.5 mph 21.9 mph N/A   Scattered Clouds
7:53 PM 77.0 °F - 64.9 °F 66% 30.07 in 10.0 mi NE 15.0 mph 24.2 mph N/A   Scattered Clouds
8:53 PM 75.9 °F - 64.9 °F 69% 30.08 in 10.0 mi NE 15.0 mph 19.6 mph 0.00 in   Scattered Clouds
9:53 PM 75.9 °F - 64.9 °F 69% 30.10 in 10.0 mi ENE 15.0 mph - 0.00 in   Scattered Clouds
10:53 PM 75.0 °F - 64.9 °F 71% 30.10 in 10.0 mi ENE 11.5 mph - N/A   Scattered Clouds
11:53 PM 73.0 °F - 68.0 °F 84% 30.09 in 10.0 mi East 6.9 mph - 0.00 in Rain Light Rain